QPF
0.00 0.00 0.00 0.00 0.00 0.00 0.00 0.00 0.00 0.00 0.00 0.00 0.00 0.00 0.00 0.00 0.00 0.00 0.00 0.00 0.00 0.00 0.00 0.00 0.00 0.00 0.00 0.00 0.01 0.01 0.01 0.00 0.00 0.00 0.00 0.00 0.00 0.00 0.00 0.01 0.01 0.00 0.00 0.00 0.00
0.00 0.00 0.00 0.00 0.00 0.00 0.00 0.00 0.00 0.00 0.00 0.00 0.00 0.00 0.00 0.00 0.00 0.00 0.00 0.00 0.00 0.00 0.00 0.00 0.00 0.00 0.00 0.00 0.00 0.01 0.00 0.00 0.00 0.00 0.00 0.00 0.00 0.00 0.00 0.00 0.01 0.00 0.00 0.00 0.00
0.00 0.00 0.00 0.00 0.00 0.00 0.00 0.00 0.00 0.00 0.00 0.00 0.00 0.00 0.00 0.00 0.00 0.00 0.00 0.00 0.00 0.00 0.00 0.00 0.00 0.00 0.00 0.00 0.00 0.00 0.00 0.00 0.00 0.00 0.00 0.00 0.00 0.00 0.00 0.00 0.00 0.00 0.00 0.00 0.00
0.00 0.00 0.00 0.00 0.00 0.00 0.00 0.00 0.00 0.00 0.00 0.00 0.00 0.00 0.00 0.00 0.00 0.00 0.00 0.00 0.00 0.00 0.00 0.00 0.00 0.00 0.00 0.00 0.00 0.00 0.00 0.00 0.00 0.00 0.00 0.00 0.00 0.00 0.00 0.00 0.00 0.00 0.00 0.00 0.00
0.00 0.00 0.00 0.00 0.00 0.00 0.00 0.00 0.00 0.00 0.00 0.00 0.00 0.00 0.00 0.00 0.00 0.00 0.00 0.00 0.00 0.00 0.00 0.00 0.00 0.00 0.00 0.00 0.00 0.00 0.00 0.00 0.00 0.00 0.00 0.00 0.00 0.00 0.00 0.00 0.00 0.00 0.00 0.00 0.00
0.00 0.00 0.00 0.00 0.00 0.00 0.00 0.00 0.00 0.00 0.00 0.00 0.00 0.00 0.00 0.00 0.00 0.00 0.00 0.00 0.00 0.00 0.00 0.00 0.00 0.00 0.00 0.00 0.00 0.00 0.00 0.00 0.00 0.00 0.00 0.00 0.00 0.00 0.00 0.00 0.00 0.00 0.00 0.00 0.00
0.00 0.00 0.00 0.00 0.00 0.00 0.00 0.00 0.00 0.00 0.00 0.00 0.00 0.00 0.00 0.00 0.00 0.00 0.00 0.00 0.00 0.00 0.00 0.00 0.00 0.00 0.00 0.00 0.00 0.00 0.00 0.00 0.00 0.00 0.00 0.00 0.00 0.00 0.00 0.00 0.00 0.00 0.00 0.00 0.00
0.00 0.00 0.00 0.00 0.00 0.00 0.00 0.00 0.00 0.00 0.00 0.00 0.00 0.00 0.00 0.00 0.00 0.00 0.00 0.00 0.00 0.00 0.00 0.00 0.00 0.00 0.00 0.00 0.00 0.00 0.00 0.00 0.00 0.00 0.00 0.00 0.00 0.00 0.00 0.00 0.00 0.00 0.00 0.00 0.00
0.00 0.00 0.00 0.00 0.00 0.00 0.00 0.00 0.00 0.00 0.00 0.00 0.00 0.00 0.00 0.00 0.00 0.00 0.00 0.00 0.00 0.00 0.00 0.00 0.00 0.00 0.00 0.00 0.00 0.00 0.00 0.00 0.00 0.00 0.00 0.00 0.00 0.00 0.00 0.00 0.00 0.00 0.00 0.00 0.00
0.00 0.00 0.00 0.00 0.00 0.00 0.00 0.00 0.00 0.00 0.00 0.00 0.00 0.00 0.00 0.00 0.00 0.00 0.00 0.00 0.00 0.00 0.00 0.00 0.00 0.00 0.00 0.00 0.00 0.00 0.00 0.00 0.00 0.00 0.00 0.00 0.00 0.00 0.00 0.00 0.00 0.00 0.00 0.00 0.00
0.00 0.00 0.00 0.00 0.00 0.00 0.00 0.00 0.00 0.00 0.00 0.00 0.00 0.00 0.00 0.00 0.00 0.00 0.00 0.00 0.00 0.00 0.00 0.00 0.00 0.00 0.00 0.00 0.00 0.00 0.00 0.00 0.00 0.00 0.00 0.00 0.00 0.00 0.00 0.00 0.00 0.00 0.00 0.00 0.00
0.00 0.00 0.00 0.00 0.00 0.00 0.00 0.00 0.00 0.00 0.00 0.00 0.00 0.00 0.00 0.00 0.00 0.00 0.00 0.00 0.00 0.00 0.00 0.00 0.00 0.00 0.00 0.00 0.00 0.00 0.00 0.00 0.00 0.00 0.00 0.00 0.00 0.00 0.00 0.00 0.00 0.00 0.00 0.00 0.00
0.00 0.00 0.00 0.00 0.00 0.00 0.00 0.00 0.00 0.00 0.00 0.00 0.00 0.00 0.00 0.00 0.00 0.00 0.00 0.00 0.00 0.00 0.00 0.00 0.00 0.00 0.00 0.00 0.00 0.00 0.00 0.00 0.00 0.00 0.00 0.00 0.00 0.00 0.00 0.00 0.00 0.00 0.00 0.00 0.00
0.00 0.00 0.00 0.00 0.00 0.00 0.00 0.00 0.00 0.00 0.00 0.00 0.00 0.00 0.00 0.00 0.00 0.00 0.00 0.00 0.00 0.00 0.00 0.00 0.00 0.00 0.00 0.00 0.00 0.00 0.00 0.00 0.00 0.00 0.00 0.00 0.00 0.00 0.00 0.00 0.00 0.00 0.00 0.00 0.00
0.00 0.00 0.00 0.00 0.00 0.00 0.00 0.00 0.00 0.00 0.00 0.00 0.00 0.00 0.00 0.00 0.00 0.00 0.00 0.00 0.00 0.00 0.00 0.00 0.00 0.00 0.00 0.00 0.00 0.00 0.00 0.00 0.00 0.00 0.00 0.00 0.00 0.00 0.00 0.00 0.00 0.00 0.00 0.00 0.00
0.00 0.00 0.00 0.00 0.00 0.00 0.00 0.00 0.00 0.00 0.00 0.00 0.00 0.00 0.00 0.00 0.00 0.00 0.00 0.00 0.00 0.00 0.00 0.00 0.00 0.00 0.00 0.00 0.00 0.00 0.00 0.00 0.00 0.00 0.00 0.00 0.00 0.00 0.00 0.00 0.00 0.00 0.00 0.00 0.00
0.00 0.00 0.00 0.00 0.00 0.00 0.00 0.00 0.00 0.00 0.00 0.00 0.00 0.00 0.00 0.00 0.00 0.00 0.00 0.00 0.00 0.00 0.00 0.00 0.00 0.00 0.00 0.00 0.00 0.00 0.00 0.00 0.00 0.00 0.00 0.00 0.00 0.00 0.00 0.00 0.00 0.00 0.00 0.00 0.00
0.00 0.00 0.00 0.00 0.00 0.00 0.00 0.00 0.00 0.00 0.00 0.00 0.00 0.00 0.00 0.00 0.00 0.00 0.00 0.00 0.00 0.00 0.00 0.00 0.00 0.00 0.00 0.00 0.00 0.00 0.00 0.00 0.00 0.00 0.00 0.00 0.00 0.00 0.00 0.00 0.00 0.00 0.00 0.00 0.00
0.00 0.00 0.00 0.00 0.00 0.00 0.00 0.00 0.00 0.00 0.00 0.00 0.00 0.00 0.00 0.00 0.00 0.00 0.00 0.00 0.00 0.00 0.00 0.00 0.00 0.00 0.00 0.00 0.00 0.00 0.00 0.00 0.00 0.00 0.00 0.00 0.00 0.00 0.00 0.00 0.00 0.00 0.00 0.00 0.00
0.00 0.00 0.00 0.00 0.00 0.00 0.00 0.00 0.00 0.00 0.00 0.00 0.00 0.00 0.00 0.00 0.00 0.00 0.00 0.00 0.00 0.00 0.00 0.00 0.00 0.00 0.00 0.00 0.00 0.00 0.00 0.00 0.00 0.00 0.00 0.00 0.00 0.00 0.00 0.00 0.00 0.00 0.00 0.00 0.00
0.00 0.00 0.00 0.00 0.00 0.00 0.00 0.00 0.00 0.00 0.00 0.00 0.00 0.00 0.00 0.00 0.00 0.00 0.00 0.00 0.00 0.00 0.00 0.00 0.00 0.00 0.00 0.00 0.00 0.00 0.00 0.00 0.00 0.00 0.00 0.00 0.00 0.00 0.00 0.00 0.00 0.00 0.00 0.00 0.00
0.00 0.00 0.00 0.00 0.00 0.00 0.00 0.00 0.00 0.00 0.00 0.00 0.00 0.00 0.00 0.00 0.00 0.00 0.00 0.00 0.00 0.00 0.00 0.00 0.00 0.00 0.00 0.00 0.00 0.00 0.00 0.00 0.00 0.00 0.00 0.00 0.00 0.00 0.00 0.00 0.00 0.00 0.00 0.00 0.00
0.00 0.00 0.00 0.00 0.00 0.00 0.00 0.00 0.00 0.00 0.00 0.00 0.00 0.00 0.00 0.00 0.00 0.00 0.00 0.00 0.00 0.00 0.00 0.00 0.00 0.00 0.00 0.00 0.00 0.00 0.00 0.00 0.00 0.00 0.00 0.00 0.00 0.00 0.00 0.00 0.00 0.00 0.00 0.00 0.00
0.00 0.00 0.00 0.00 0.00 0.00 0.00 0.00 0.00 0.00 0.00 0.00 0.00 0.00 0.00 0.00 0.00 0.00 0.00 0.00 0.00 0.00 0.00 0.00 0.00 0.00 0.00 0.00 0.00 0.00 0.00 0.00 0.00 0.00 0.00 0.00 0.00 0.00 0.00 0.00 0.00 0.00 0.02 0.00 0.00
0.00 0.00 0.00 0.00 0.00 0.00 0.00 0.00 0.00 0.00 0.00 0.00 0.00 0.00 0.00 0.00 0.00 0.00 0.00 0.00 0.00 0.00 0.00 0.00 0.00 0.00 0.00 0.00 0.00 0.00 0.00 0.00 0.00 0.00 0.00 0.00 0.00 0.00 0.00 0.00 0.00 0.00 0.02 0.00 0.00
0.00 0.00 0.00 0.00 0.00 0.00 0.00 0.00 0.00 0.00 0.00 0.00 0.00 0.00 0.00 0.00 0.00 0.00 0.00 0.00 0.00 0.00 0.00 0.00 0.00 0.00 0.00 0.00 0.00 0.00 0.00 0.00 0.00 0.00 0.00 0.00 0.00 0.00 0.00 0.00 0.00 0.00 0.00 0.00 0.00
0.00 0.00 0.00 0.00 0.00 0.00 0.00 0.00 0.00 0.00 0.00 0.00 0.00 0.00 0.00 0.00 0.00 0.00 0.00 0.00 0.00 0.00 0.00 0.00 0.00 0.00 0.00 0.00 0.00 0.00 0.00 0.00 0.00 0.00 0.00 0.00 0.00 0.01 0.01 0.01 0.00 0.00 0.00 0.00 0.03
MSLP
1016.03 1015.49 1014.96 1014.43 1013.99 1013.53 1013.04 1012.58 1012.14 1011.85 1011.58 1011.32 1010.98 1010.64 1010.30 1010.07 1009.59 1009.67 1008.36 1005.60 1005.57 1005.70 1006.30 1007.12 1007.68 1007.67 1007.57 1007.74 1007.89 1008.44 1009.04 1009.20 1007.90 1007.34 1006.10 1005.19 1004.93 1004.41 1004.02 1002.93 1003.30 1003.88 1004.25 1005.01 1006.76
1016.02 1015.41 1014.86 1014.32 1013.81 1013.30 1012.81 1012.35 1011.88 1011.54 1011.31 1011.01 1010.78 1010.44 1010.16 1009.98 1009.52 1008.12 1005.02 1005.00 1005.20 1005.52 1006.22 1006.61 1007.27 1007.53 1007.83 1007.75 1007.87 1008.28 1008.74 1008.09 1006.97 1006.00 1005.22 1004.84 1004.63 1004.47 1004.41 1003.47 1003.61 1003.34 1003.58 1004.49 1006.32
1015.84 1015.35 1014.84 1014.22 1013.66 1013.16 1012.56 1012.08 1011.57 1011.17 1011.03 1010.72 1010.44 1010.13 1009.96 1009.89 1008.91 1005.62 1004.20 1004.69 1005.18 1005.39 1005.65 1005.94 1006.42 1007.11 1007.56 1007.41 1007.25 1007.29 1007.40 1006.91 1006.09 1005.34 1004.78 1004.46 1004.12 1004.27 1004.15 1003.46 1003.04 1003.44 1004.28 1004.84 1006.21
1015.73 1015.22 1014.62 1014.02 1013.40 1012.78 1012.13 1011.61 1011.16 1010.77 1010.61 1010.34 1010.12 1009.83 1009.69 1009.58 1007.50 1004.59 1004.12 1004.31 1005.05 1005.53 1005.69 1005.93 1006.45 1006.88 1006.98 1006.83 1006.52 1006.47 1005.95 1005.75 1005.19 1004.88 1004.98 1004.45 1004.06 1003.53 1003.54 1001.92 1002.12 1002.86 1003.05 1003.91 1005.23
1015.66 1015.01 1014.38 1013.67 1012.94 1012.31 1011.69 1011.20 1010.67 1010.29 1010.14 1009.99 1009.77 1009.57 1009.56 1008.55 1005.91 1004.39 1004.41 1004.68 1005.32 1005.72 1005.76 1005.87 1006.14 1006.31 1006.31 1006.10 1005.91 1005.74 1005.20 1004.84 1004.49 1004.23 1004.27 1003.94 1003.66 1003.15 1002.46 1001.96 1001.68 1002.35 1002.94 1003.69 1004.49
1015.49 1014.77 1014.06 1013.30 1012.47 1011.72 1011.12 1010.72 1010.18 1009.71 1009.65 1009.58 1009.48 1009.40 1008.99 1007.06 1004.11 1004.20 1004.56 1004.93 1004.98 1005.39 1005.49 1005.63 1005.59 1005.56 1005.78 1005.79 1005.78 1005.10 1004.81 1004.43 1004.13 1003.75 1003.64 1003.65 1003.13 1003.21 1001.59 1000.83 1000.83 1001.63 1002.45 1003.85 1006.01
1015.24 1014.45 1013.61 1012.87 1011.97 1011.04 1010.43 1010.01 1009.60 1009.21 1009.05 1009.14 1009.16 1009.11 1008.28 1005.39 1004.04 1004.10 1004.35 1004.59 1004.78 1004.82 1005.14 1004.94 1005.10 1005.41 1005.66 1005.69 1005.37 1005.24 1005.28 1004.56 1003.69 1003.23 1003.13 1002.87 1002.72 1002.23 1000.96 1001.00 1001.33 1001.69 1002.54 1003.53 1003.31
1014.96 1014.12 1013.29 1012.39 1011.40 1010.32 1009.80 1009.18 1008.74 1008.42 1008.51 1008.71 1008.89 1008.74 1006.92 1004.09 1003.95 1004.22 1004.32 1004.27 1004.25 1004.45 1004.50 1004.39 1004.80 1005.24 1005.64 1005.57 1005.71 1006.01 1005.97 1005.57 1003.97 1003.50 1003.05 1002.72 1002.54 1001.59 1000.81 1001.13 1001.08 1001.52 1002.17 1002.52 1002.31
1014.80 1013.91 1013.02 1012.05 1010.91 1009.69 1009.21 1008.58 1007.96 1008.01 1008.33 1008.48 1008.75 1008.23 1005.45 1003.88 1003.80 1003.05 1003.66 1004.00 1003.85 1004.13 1004.21 1004.37 1004.83 1005.57 1005.97 1006.47 1006.97 1007.36 1006.97 1006.24 1004.87 1003.63 1003.66 1003.46 1002.91 1001.29 1001.00 1001.00 1000.89 1001.10 1001.63 1001.98 1002.07
1014.75 1013.83 1012.76 1011.85 1010.73 1009.44 1008.86 1008.35 1008.19 1008.30 1008.54 1008.33 1007.99 1007.72 1004.89 1003.86 1003.16 1002.84 1003.11 1003.46 1003.66 1004.00 1004.44 1004.66 1005.46 1006.11 1006.89 1007.40 1007.76 1007.64 1007.41 1006.77 1005.90 1004.01 1003.74 1003.56 1003.22 1001.76 1001.22 1001.11 1000.88 1000.90 1001.14 1001.42 1001.86
1014.66 1013.78 1012.81 1011.69 1010.69 1009.68 1008.52 1008.25 1008.67 1008.49 1007.89 1007.49 1007.29 1006.45 1004.99 1003.75 1002.75 1002.62 1002.59 1003.15 1003.45 1004.09 1004.87 1005.30 1006.28 1006.54 1006.36 1006.70 1006.63 1006.89 1007.10 1006.98 1005.73 1004.49 1004.86 1003.78 1003.38 1002.25 1001.60 1001.36 1000.87 1000.70 1001.05 1001.24 1001.18
1014.65 1013.90 1012.94 1011.69 1010.68 1009.75 1009.50 1009.50 1010.32 1009.89 1008.45 1006.58 1006.03 1005.62 1004.49 1004.22 1003.62 1002.56 1002.37 1003.22 1003.67 1004.33 1004.96 1005.87 1005.94 1005.29 1005.64 1005.84 1006.22 1006.54 1006.86 1006.41 1005.63 1004.45 1004.74 1004.10 1003.36 1002.39 1001.87 1001.66 1001.22 1000.88 1001.31 1001.31 1000.97
1014.66 1013.94 1013.17 1011.85 1010.66 1009.99 1010.53 1009.84 1009.59 1009.08 1009.03 1006.21 1005.09 1004.39 1003.35 1003.70 1003.14 1002.39 1002.37 1002.97 1003.61 1004.21 1004.74 1005.49 1004.74 1004.34 1004.99 1005.00 1005.39 1005.53 1006.03 1005.67 1005.50 1004.75 1004.68 1004.51 1004.09 1003.49 1002.33 1002.64 1002.91 1002.38 1001.94 1001.84 1001.79
1014.76 1014.11 1013.48 1012.15 1010.80 1011.33 1010.31 1009.46 1009.06 1008.70 1008.61 1005.81 1004.17 1002.74 1002.59 1002.61 1002.50 1001.77 1001.93 1002.67 1003.37 1003.90 1004.43 1004.84 1004.19 1004.22 1004.05 1004.12 1004.28 1004.77 1004.35 1004.69 1005.28 1005.35 1005.67 1005.42 1005.97 1005.21 1004.59 1004.04 1004.94 1004.52 1004.00 1003.58 1003.04
1014.70 1014.12 1013.52 1013.24 1012.72 1011.64 1009.97 1009.28 1008.91 1008.73 1007.69 1004.71 1003.14 1001.98 1002.13 1002.51 1002.33 1001.77 1001.81 1002.31 1002.98 1003.44 1004.22 1004.26 1003.93 1003.71 1003.55 1003.51 1003.50 1004.04 1004.09 1004.91 1005.13 1006.09 1006.46 1006.58 1007.04 1006.23 1006.03 1005.75 1006.23 1006.65 1005.88 1004.90 1004.20
1014.39 1013.76 1013.62 1013.09 1012.80 1010.68 1009.73 1009.28 1008.92 1008.88 1006.46 1004.32 1003.12 1002.65 1002.76 1002.64 1002.41 1001.90 1002.03 1002.32 1002.84 1003.47 1004.02 1003.92 1003.49 1003.42 1003.33 1003.31 1003.47 1003.74 1004.35 1005.55 1006.73 1007.23 1007.81 1007.28 1007.44 1007.25 1007.05 1006.95 1006.59 1006.67 1006.68 1006.21 1005.59
1013.82 1013.02 1013.02 1012.40 1011.19 1010.16 1009.58 1009.54 1009.57 1008.09 1005.89 1005.03 1004.12 1003.70 1003.60 1003.33 1002.73 1002.41 1002.54 1002.97 1003.47 1004.31 1004.54 1004.36 1003.69 1003.48 1003.40 1003.40 1003.53 1004.38 1006.00 1007.43 1008.28 1008.78 1008.95 1007.77 1007.81 1007.05 1006.72 1006.87 1006.91 1006.87 1006.50 1006.00 1005.55
1013.16 1012.06 1011.67 1010.88 1010.24 1010.18 1010.12 1010.04 1009.52 1008.01 1006.83 1005.44 1004.81 1004.37 1004.35 1004.14 1003.83 1003.25 1003.28 1003.75 1004.02 1004.63 1005.47 1005.39 1004.65 1004.12 1004.08 1004.39 1004.90 1005.70 1007.06 1008.58 1009.41 1009.72 1009.14 1007.98 1007.71 1006.71 1006.45 1006.73 1006.98 1006.89 1006.63 1006.29 1005.62
1012.92 1011.76 1011.40 1009.99 1009.88 1010.24 1010.61 1010.70 1009.51 1008.35 1007.46 1006.39 1005.51 1005.34 1005.28 1004.98 1004.78 1004.46 1004.65 1004.58 1004.72 1004.78 1005.73 1005.89 1005.44 1004.85 1004.56 1004.54 1005.12 1006.28 1007.23 1008.04 1009.26 1010.00 1009.71 1008.78 1007.72 1006.89 1006.47 1007.01 1007.15 1007.12 1006.90 1006.44 1006.14
1014.23 1013.34 1011.12 1009.96 1009.83 1010.14 1010.88 1010.87 1009.72 1008.36 1007.54 1006.74 1006.37 1006.18 1006.17 1005.83 1005.60 1005.40 1005.20 1005.08 1005.05 1005.21 1005.34 1006.39 1006.60 1006.10 1005.60 1005.41 1005.89 1006.46 1007.34 1008.45 1009.76 1010.73 1010.74 1009.74 1008.47 1007.39 1006.92 1007.25 1007.42 1007.36 1007.19 1006.67 1006.16
1014.69 1013.72 1011.02 1010.04 1010.15 1011.07 1011.88 1011.16 1009.67 1008.35 1007.76 1007.26 1006.72 1006.44 1006.38 1006.44 1006.19 1006.01 1005.73 1005.41 1005.31 1005.42 1005.56 1006.58 1007.44 1007.41 1007.06 1007.14 1007.16 1007.57 1008.11 1009.40 1010.54 1011.26 1011.44 1010.77 1009.16 1007.60 1007.31 1007.26 1007.51 1007.43 1007.37 1007.24 1006.63
1016.00 1014.63 1010.90 1010.25 1011.44 1012.56 1012.30 1011.20 1009.86 1008.49 1007.60 1007.16 1006.63 1006.49 1006.47 1006.57 1006.58 1006.39 1006.04 1005.69 1005.49 1005.52 1006.30 1007.27 1008.23 1008.64 1008.27 1007.64 1007.62 1007.94 1008.67 1009.64 1011.11 1011.75 1011.69 1011.12 1009.28 1007.73 1007.48 1007.54 1007.76 1007.77 1007.68 1007.27 1006.69
1017.43 1015.62 1011.50 1011.06 1012.46 1013.18 1012.41 1011.33 1010.21 1009.06 1008.17 1007.58 1007.17 1006.75 1006.59 1006.76 1006.98 1006.76 1006.45 1006.20 1005.86 1006.26 1007.02 1007.57 1008.73 1009.32 1009.08 1008.67 1008.23 1008.37 1008.89 1009.44 1010.49 1011.44 1011.49 1011.24 1009.30 1007.93 1007.89 1007.90 1007.96 1008.03 1007.61 1007.21 1006.84
1018.02 1016.69 1013.96 1013.15 1013.52 1013.50 1013.10 1011.92 1010.69 1009.22 1008.68 1008.30 1007.75 1007.19 1007.39 1007.38 1007.39 1007.36 1007.22 1006.91 1006.87 1007.13 1007.45 1007.74 1009.79 1010.14 1010.20 1009.70 1009.20 1008.90 1008.88 1009.03 1009.92 1011.04 1010.68 1010.23 1009.03 1008.31 1008.10 1008.07 1007.96 1007.93 1007.76 1007.35 1006.95
1018.28 1017.55 1016.49 1015.49 1014.72 1014.36 1013.55 1012.49 1011.59 1010.72 1009.58 1008.87 1008.28 1008.20 1008.03 1008.21 1008.28 1008.37 1008.23 1008.02 1007.84 1008.05 1008.19 1008.92 1010.17 1010.30 1010.07 1009.70 1009.29 1008.93 1008.74 1008.79 1009.41 1009.60 1010.15 1009.13 1008.96 1008.31 1008.31 1008.11 1007.91 1008.04 1007.83 1007.35 1006.70
1018.46 1017.98 1016.97 1016.40 1015.56 1014.89 1013.93 1013.31 1012.48 1011.68 1010.79 1009.91 1009.41 1008.82 1008.29 1008.56 1008.74 1008.85 1008.85 1008.93 1008.87 1008.89 1009.25 1010.02 1010.59 1010.75 1010.37 1009.54 1009.02 1008.62 1008.34 1008.46 1008.64 1008.83 1009.02 1008.93 1008.61 1008.10 1007.93 1007.92 1007.85 1007.83 1007.59 1007.20 1006.52
1018.20 1017.83 1017.50 1016.79 1016.16 1015.54 1014.61 1014.11 1013.17 1012.49 1011.06 1010.30 1009.88 1009.37 1008.97 1008.62 1008.41 1008.48 1008.66 1008.95 1009.21 1009.64 1010.17 1010.79 1011.12 1011.55 1010.75 1009.91 1009.39 1008.77 1007.80 1007.78 1008.15 1008.41 1008.83 1009.02 1008.44 1008.27 1007.94 1007.98 1007.76 1007.68 1007.64 1007.35 1006.62
Thickness
5784 5788 5792 5796 5799 5801 5804 5807 5809 5811 5812 5814 5816 5818 5820 5821 5824 5821 5825 5850 5851 5852 5846 5835 5828 5825 5825 5814 5816 5809 5774 5763 5780 5778 5788 5808 5803 5824 5830 5831 5832 5834 5827 5826 5816
5783 5788 5792 5797 5800 5803 5806 5808 5811 5814 5816 5818 5819 5821 5822 5823 5825 5828 5859 5859 5857 5854 5842 5831 5819 5819 5806 5809 5810 5794 5769 5776 5800 5805 5803 5811 5810 5816 5812 5820 5821 5831 5841 5834 5819
5784 5788 5792 5796 5800 5803 5807 5810 5814 5818 5819 5821 5823 5824 5825 5824 5828 5845 5867 5862 5857 5855 5849 5843 5833 5820 5803 5809 5809 5804 5783 5801 5809 5816 5818 5810 5812 5820 5809 5812 5823 5822 5820 5824 5819
5785 5788 5793 5797 5801 5805 5810 5814 5818 5821 5822 5824 5825 5827 5827 5826 5818 5861 5868 5865 5858 5853 5846 5836 5826 5811 5802 5798 5812 5797 5812 5816 5817 5821 5815 5811 5820 5817 5817 5834 5845 5839 5842 5835 5821
5784 5789 5793 5798 5804 5809 5814 5818 5822 5825 5826 5826 5828 5829 5828 5827 5834 5867 5866 5862 5855 5847 5837 5830 5820 5815 5803 5809 5810 5802 5811 5821 5824 5823 5818 5824 5816 5819 5827 5842 5851 5844 5843 5835 5834
5783 5788 5794 5800 5806 5813 5818 5821 5826 5829 5829 5829 5829 5829 5830 5820 5870 5868 5864 5858 5854 5845 5837 5832 5825 5827 5816 5813 5807 5817 5817 5812 5817 5823 5823 5812 5815 5814 5834 5848 5847 5843 5837 5831 5818
5783 5789 5796 5802 5809 5817 5823 5826 5830 5833 5833 5832 5831 5831 5829 5835 5869 5868 5864 5857 5855 5849 5836 5840 5838 5825 5821 5808 5821 5817 5802 5808 5816 5820 5814 5821 5807 5810 5837 5841 5833 5835 5832 5828 5837
5783 5790 5796 5804 5813 5822 5827 5832 5836 5838 5837 5834 5831 5831 5825 5867 5868 5862 5861 5856 5859 5854 5848 5849 5842 5826 5815 5821 5805 5796 5789 5769 5803 5814 5819 5819 5785 5820 5837 5831 5827 5831 5830 5832 5841
5781 5788 5796 5804 5814 5825 5830 5836 5840 5839 5836 5833 5829 5828 5829 5869 5857 5869 5863 5849 5853 5850 5848 5848 5834 5812 5808 5785 5767 5765 5756 5767 5781 5810 5805 5807 5791 5824 5833 5830 5826 5830 5830 5833 5837
5779 5786 5795 5803 5813 5825 5831 5835 5835 5834 5831 5832 5832 5822 5844 5841 5860 5866 5866 5858 5845 5840 5829 5825 5803 5787 5775 5765 5742 5758 5760 5766 5764 5795 5800 5793 5789 5816 5825 5826 5825 5825 5830 5833 5832
5776 5783 5791 5801 5810 5819 5830 5832 5820 5820 5828 5824 5822 5824 5834 5852 5864 5857 5862 5848 5842 5826 5800 5807 5781 5764 5776 5778 5782 5776 5765 5761 5775 5798 5787 5785 5786 5804 5815 5819 5824 5824 5823 5829 5834
5772 5778 5787 5797 5806 5815 5817 5813 5804 5806 5799 5828 5827 5827 5839 5843 5826 5844 5859 5826 5819 5797 5804 5786 5769 5793 5795 5788 5779 5769 5762 5760 5774 5790 5774 5780 5789 5803 5810 5815 5820 5819 5818 5824 5835
5768 5774 5781 5792 5803 5808 5801 5807 5811 5813 5786 5812 5827 5826 5836 5835 5823 5827 5840 5825 5809 5796 5793 5773 5789 5806 5795 5788 5780 5771 5758 5762 5761 5785 5783 5782 5767 5777 5804 5807 5799 5805 5813 5816 5820
5763 5768 5774 5786 5796 5791 5797 5808 5810 5812 5763 5800 5815 5828 5836 5835 5818 5844 5842 5825 5808 5794 5791 5780 5797 5797 5792 5785 5784 5768 5784 5780 5772 5760 5742 5769 5722 5759 5766 5780 5772 5778 5789 5793 5802
5758 5763 5769 5772 5777 5782 5799 5804 5806 5799 5744 5810 5817 5848 5835 5816 5821 5827 5842 5823 5798 5799 5794 5780 5789 5786 5778 5786 5796 5775 5792 5781 5780 5753 5751 5747 5721 5741 5750 5753 5754 5758 5769 5779 5788
5756 5761 5763 5767 5769 5787 5794 5797 5794 5754 5749 5795 5814 5806 5803 5810 5813 5825 5821 5826 5816 5796 5791 5785 5803 5797 5791 5795 5794 5792 5779 5757 5739 5731 5713 5739 5726 5723 5733 5745 5748 5756 5757 5766 5772
5754 5761 5761 5766 5776 5785 5790 5782 5744 5736 5789 5777 5786 5794 5789 5790 5800 5803 5798 5789 5771 5757 5758 5772 5784 5793 5795 5778 5784 5768 5738 5701 5705 5694 5699 5726 5719 5723 5745 5748 5748 5749 5753 5760 5766
5752 5762 5766 5772 5779 5779 5776 5755 5737 5759 5759 5786 5785 5784 5776 5781 5785 5788 5786 5770 5780 5768 5743 5744 5741 5775 5784 5769 5759 5751 5730 5695 5684 5678 5696 5722 5709 5726 5746 5749 5747 5747 5749 5753 5757
5748 5758 5761 5773 5776 5773 5756 5724 5734 5750 5759 5761 5770 5760 5756 5768 5774 5770 5762 5760 5765 5770 5741 5732 5745 5775 5778 5777 5764 5741 5719 5731 5701 5696 5688 5697 5724 5738 5741 5737 5739 5738 5742 5745 5748
5727 5734 5752 5765 5768 5761 5734 5721 5732 5754 5759 5760 5748 5754 5743 5751 5752 5749 5751 5764 5763 5766 5763 5743 5722 5751 5763 5769 5758 5743 5738 5705 5691 5680 5681 5683 5703 5701 5725 5728 5726 5727 5731 5737 5741
5717 5720 5747 5757 5755 5733 5712 5716 5734 5753 5754 5749 5747 5746 5745 5743 5746 5743 5745 5759 5762 5761 5760 5742 5723 5727 5742 5731 5727 5717 5706 5699 5690 5676 5663 5655 5672 5713 5720 5725 5720 5721 5723 5726 5731
5693 5699 5741 5747 5714 5696 5707 5724 5737 5740 5750 5747 5751 5748 5743 5740 5735 5738 5737 5745 5757 5758 5741 5735 5707 5698 5719 5734 5729 5723 5709 5691 5666 5668 5664 5657 5664 5711 5718 5718 5715 5712 5714 5719 5730
5671 5679 5727 5731 5693 5691 5702 5714 5726 5728 5730 5733 5734 5745 5746 5736 5724 5731 5736 5747 5750 5739 5728 5731 5700 5678 5690 5707 5714 5706 5704 5698 5674 5658 5661 5648 5662 5704 5704 5704 5705 5700 5704 5709 5715
5661 5669 5694 5698 5691 5694 5692 5697 5704 5726 5723 5725 5726 5733 5727 5725 5726 5720 5721 5734 5738 5733 5728 5721 5683 5679 5662 5679 5691 5691 5696 5698 5677 5649 5656 5657 5673 5685 5692 5692 5697 5695 5693 5697 5703
5648 5657 5664 5662 5676 5678 5685 5690 5692 5692 5711 5713 5713 5712 5712 5702 5700 5700 5705 5711 5722 5720 5719 5704 5683 5682 5680 5683 5683 5686 5689 5695 5683 5674 5659 5678 5670 5683 5684 5685 5690 5688 5687 5690 5696
5639 5644 5648 5651 5657 5668 5671 5675 5678 5684 5691 5691 5696 5702 5702 5695 5697 5692 5696 5695 5694 5700 5700 5685 5671 5675 5672 5685 5684 5678 5688 5687 5685 5683 5677 5677 5671 5685 5683 5683 5686 5683 5684 5687 5691
5624 5631 5635 5641 5645 5652 5655 5660 5667 5673 5685 5692 5689 5689 5690 5694 5700 5699 5698 5695 5695 5690 5679 5672 5659 5648 5656 5671 5666 5657 5679 5679 5677 5675 5670 5657 5671 5673 5675 5677 5679 5678 5676 5678 5683